Simultaneous Nadir Overpasses (SNOs) Predictions

Prediction of SNOs between GOES-16 and AQUA Satellite Orbit:

Table of predicted SNOs for the next 14.0 days since TLE Epoch: 1/26/2018
Index Date Time (GOES-16) GOES-16 Lat,Lon AQUA Lat,Lon Distance(km) Time Diff (sec)
1 01/27/2018 18:35:39 -0.03, -75.20 0.08, -74.62 65.94 80
2 01/29/2018 18:23:29 -0.03, -75.19 0.71, -71.66 401.65 80
3 01/30/2018 06:44:45 0.04, -75.18 0.36, -76.82 185.71 80
4 02/01/2018 06:29:55 0.04, -75.19 -0.26, -73.86 150.77 80
5 02/01/2018 18:51:20 -0.04, -75.20 -0.83, -79.06 438.41 80
6 02/03/2018 06:17:45 0.04, -75.20 -0.89, -70.91 488.03 80
7 02/03/2018 18:39:10 -0.04, -75.21 -0.20, -76.10 100.90 80
8 02/05/2018 18:29:39 -0.04, -75.23 0.37, -73.14 237.53 80
9 02/06/2018 06:50:55 0.05, -75.23 0.70, -78.30 348.78 80
10 02/08/2018 06:38:45 0.05, -75.26 0.06, -75.34 9.74 80




NCC Satellite Simultaneous Nadir Overpasses (SNOs) Prediction Service
